• In India
  • List of Countries
  • For 7 days
  • Water Temperature
  • Satellite Maps
  • Weather Map
  • Weather Widgets
  • user-avatar
    Login

    Hourly Weather Igls

    Today, 24 September, Sunday

    Time Temperature Precipitation Wind Pressure Humidity
    00:00 +10°C° 0.1 mm 1 mps 686 mmHg 96%
    01:00 +10°C° 0.1 mm 1 mps 686 mmHg 96%
    02:00 +10°C° 0.3 mm 1 mps 686 mmHg 95%
    03:00 +10°C° 0.3 mm 1 mps 686 mmHg 95%
    04:00 +11°C° 0.3 mm 1 mps 686 mmHg 95%
    05:00 +10°C° 0.4 mm 1 mps 686 mmHg 95%
    06:00 +10°C° 0.4 mm 1 mps 686 mmHg 94%
    07:00 +10°C° 0.4 mm 1 mps 686 mmHg 94%
    08:00 +11°C° 0.3 mm 1 mps 686 mmHg 91%
    09:00 +12°C° 0.3 mm 1 mps 687 mmHg 87%
    10:00 +13°C° 0.3 mm 1 mps 687 mmHg 83%
    11:00 +14°C° 0.2 mm 1 mps 687 mmHg 79%
    12:00 +15°C° 0.2 mm 1 mps 687 mmHg 75%
    13:00 +16°C° 0.2 mm 1 mps 687 mmHg 71%
    14:00 +15°C° 0.2 mm 2 mps 687 mmHg 73%
    15:00 +15°C° 0.2 mm 2 mps 686 mmHg 75%
    16:00 +15°C° 0.2 mm 2 mps 686 mmHg 77%
    17:00 +13°C° 0.1 mm 1 mps 686 mmHg 82%
    18:00 +12°C° 0.1 mm 1 mps 686 mmHg 88%
    19:00 +10°C° 0.1 mm 1 mps 686 mmHg 93%
    20:00 +10°C° 0 mm 1 mps 686 mmHg 94%
    21:00 +10°C° 0 mm 1 mps 686 mmHg 94%
    22:00 +9°C° 0 mm 1 mps 687 mmHg 94%
    23:00 +9°C° 0 mm 1 mps 686 mmHg 94%

    Tomorrow, 25 September, Monday

    Time Temperature Precipitation Wind Pressure Humidity
    00:00 +8°C° 0 mm 1 mps 686 mmHg 94%
    01:00 +8°C° 0 mm 1 mps 686 mmHg 93%
    02:00 +8°C° 0 mm 1 mps 686 mmHg 92%
    03:00 +7°C° 0 mm 1 mps 686 mmHg 91%
    04:00 +7°C° 0 mm 1 mps 685 mmHg 90%
    05:00 +8°C° 0 mm 1 mps 685 mmHg 89%
    06:00 +8°C° 0 mm 1 mps 685 mmHg 87%
    07:00 +8°C° 0 mm 1 mps 686 mmHg 86%
    08:00 +10°C° 0 mm 1 mps 686 mmHg 78%
    09:00 +12°C° 0 mm 0 mps 686 mmHg 71%
    10:00 +14°C° 0 mm 0 mps 687 mmHg 64%
    11:00 +15°C° 0 mm 0 mps 686 mmHg 61%
    12:00 +18°C° 0 mm 1 mps 686 mmHg 57%
    13:00 +19°C° 0 mm 1 mps 686 mmHg 54%
    14:00 +18°C° 0 mm 1 mps 686 mmHg 57%
    15:00 +18°C° 0 mm 1 mps 686 mmHg 59%
    16:00 +16°C° 0 mm 1 mps 685 mmHg 62%
    17:00 +14°C° 0 mm 1 mps 685 mmHg 70%
    18:00 +12°C° 0 mm 1 mps 685 mmHg 78%
    19:00 +9°C° 0 mm 0 mps 685 mmHg 86%
    20:00 +9°C° 0 mm 1 mps 686 mmHg 86%
    21:00 +9°C° 0 mm 1 mps 686 mmHg 87%
    22:00 +9°C° 0 mm 1 mps 686 mmHg 87%
    23:00 +8°C° 0 mm 1 mps 686 mmHg 87%

    Day after tomorrow, 26 September, Tuesday

    Time Temperature Precipitation Wind Pressure Humidity
    00:00 +8°C° 0 mm 1 mps 686 mmHg 86%
    01:00 +8°C° 0 mm 1 mps 686 mmHg 86%
    02:00 +8°C° 0 mm 1 mps 686 mmHg 85%
    03:00 +8°C° 0 mm 1 mps 686 mmHg 85%
    04:00 +8°C° 0 mm 1 mps 686 mmHg 85%
    05:00 +8°C° 0 mm 1 mps 687 mmHg 83%
    06:00 +9°C° 0 mm 1 mps 687 mmHg 82%
    07:00 +9°C° 0 mm 1 mps 687 mmHg 81%
    08:00 +12°C° 0 mm 1 mps 687 mmHg 75%
    09:00 +14°C° 0 mm 1 mps 688 mmHg 69%
    10:00 +16°C° 0 mm 1 mps 688 mmHg 63%
    11:00 +18°C° 0 mm 1 mps 688 mmHg 62%
    12:00 +18°C° 0 mm 1 mps 688 mmHg 60%
    13:00 +19°C° 0 mm 1 mps 688 mmHg 58%
    14:00 +18°C° 0.1 mm 1 mps 688 mmHg 62%
    15:00 +18°C° 0.1 mm 1 mps 688 mmHg 65%
    16:00 +18°C° 0.1 mm 1 mps 688 mmHg 69%
    17:00 +15°C° 0.1 mm 1 mps 688 mmHg 76%
    18:00 +12°C° 0.1 mm 1 mps 688 mmHg 83%
    19:00 +10°C° 0.1 mm 1 mps 688 mmHg 91%
    20:00 +10°C° 0 mm 1 mps 688 mmHg 91%
    21:00 +10°C° 0 mm 1 mps 688 mmHg 92%
    22:00 +9°C° 0 mm 1 mps 688 mmHg 93%
    23:00 +9°C° 0 mm 1 mps 688 mmHg 92%

    27 September, Wednesday

    Time Temperature Precipitation Wind Pressure Humidity
    00:00 +9°C° 0 mm 1 mps 688 mmHg 91%
    01:00 +9°C° 0 mm 1 mps 688 mmHg 90%
    02:00 +8°C° 0 mm 1 mps 688 mmHg 90%
    03:00 +8°C° 0 mm 1 mps 688 mmHg 89%
    04:00 +8°C° 0 mm 1 mps 688 mmHg 89%
    05:00 +8°C° 0 mm 1 mps 688 mmHg 88%
    06:00 +9°C° 0 mm 1 mps 689 mmHg 87%
    07:00 +9°C° 0 mm 1 mps 689 mmHg 86%
    08:00 +12°C° 0 mm 1 mps 689 mmHg 79%
    09:00 +14°C° 0 mm 1 mps 690 mmHg 71%
    10:00 +18°C° 0 mm 1 mps 690 mmHg 64%
    11:00 +18°C° 0 mm 1 mps 690 mmHg 61%
    12:00 +19°C° 0 mm 1 mps 690 mmHg 59%
    13:00 +20°C° 0 mm 1 mps 690 mmHg 56%
    14:00 +19°C° 0 mm 1 mps 690 mmHg 60%
    15:00 +19°C° 0 mm 1 mps 690 mmHg 64%
    16:00 +18°C° 0 mm 1 mps 690 mmHg 68%
    17:00 +15°C° 0.1 mm 1 mps 690 mmHg 75%
    18:00 +12°C° 0.1 mm 0 mps 689 mmHg 83%
    19:00 +10°C° 0.1 mm 0 mps 689 mmHg 91%
    20:00 +9°C° 0 mm 0 mps 689 mmHg 90%
    21:00 +10°C° 0 mm 1 mps 690 mmHg 90%
    22:00 +10°C° 0 mm 1 mps 690 mmHg 90%
    23:00 +10°C° 0 mm 1 mps 690 mmHg 89%

    28 September, Thursday

    Time Temperature Precipitation Wind Pressure Humidity
    00:00 +9°C° 0 mm 1 mps 690 mmHg 88%
    01:00 +9°C° 0 mm 1 mps 690 mmHg 87%
    02:00 +9°C° 0 mm 1 mps 690 mmHg 86%
    03:00 +9°C° 0 mm 1 mps 690 mmHg 86%
    04:00 +9°C° 0 mm 1 mps 690 mmHg 86%
    05:00 +9°C° 0 mm 1 mps 690 mmHg 85%
    06:00 +9°C° 0 mm 1 mps 691 mmHg 84%
    07:00 +10°C° 0 mm 1 mps 691 mmHg 84%
    08:00 +13°C° 0 mm 1 mps 691 mmHg 76%
    09:00 +15°C° 0 mm 1 mps 692 mmHg 68%
    10:00 +19°C° 0 mm 1 mps 692 mmHg 60%
    11:00 +20°C° 0 mm 1 mps 692 mmHg 58%
    12:00 +20°C° 0 mm 1 mps 692 mmHg 55%
    13:00 +21°C° 0 mm 1 mps 692 mmHg 53%
    14:00 +21°C° 0 mm 1 mps 692 mmHg 56%
    15:00 +19°C° 0 mm 2 mps 692 mmHg 59%
    16:00 +19°C° 0 mm 2 mps 692 mmHg 62%
    17:00 +16°C° 0 mm 1 mps 691 mmHg 72%
    18:00 +14°C° 0 mm 1 mps 691 mmHg 82%
    19:00 +11°C° 0 mm 1 mps 691 mmHg 92%
    20:00 +11°C° 0 mm 1 mps 691 mmHg 92%
    21:00 +11°C° 0 mm 1 mps 691 mmHg 93%
    22:00 +10°C° 0 mm 1 mps 691 mmHg 93%
    23:00 +10°C° 0 mm 1 mps 691 mmHg 93%

    29 September, Friday

    Time Temperature Precipitation Wind Pressure Humidity
    00:00 +10°C° 0 mm 1 mps 691 mmHg 92%
    01:00 +10°C° 0 mm 1 mps 691 mmHg 91%
    02:00 +9°C° 0 mm 1 mps 691 mmHg 90%
    03:00 +9°C° 0 mm 1 mps 690 mmHg 89%
    04:00 +9°C° 0 mm 1 mps 690 mmHg 87%
    05:00 +9°C° 0 mm 1 mps 690 mmHg 86%
    06:00 +10°C° 0 mm 1 mps 690 mmHg 84%
    07:00 +10°C° 0 mm 1 mps 690 mmHg 82%
    08:00 +13°C° 0 mm 1 mps 691 mmHg 71%
    09:00 +16°C° 0 mm 1 mps 691 mmHg 61%
    10:00 +18°C° 0 mm 0 mps 691 mmHg 51%
    11:00 +21°C° 0 mm 1 mps 691 mmHg 49%
    12:00 +21°C° 0 mm 1 mps 691 mmHg 46%
    13:00 +22°C° 0 mm 1 mps 691 mmHg 44%
    14:00 +22°C° 0 mm 1 mps 690 mmHg 47%
    15:00 +21°C° 0 mm 1 mps 690 mmHg 51%
    16:00 +21°C° 0 mm 1 mps 689 mmHg 54%
    17:00 +18°C° 0 mm 1 mps 689 mmHg 65%
    18:00 +14°C° 0 mm 1 mps 689 mmHg 76%
    19:00 +10°C° 0 mm 0 mps 688 mmHg 88%
    20:00 +11°C° 0 mm 1 mps 688 mmHg 87%
    21:00 +11°C° 0 mm 1 mps 688 mmHg 87%
    22:00 +11°C° 0 mm 1 mps 689 mmHg 87%
    23:00 +10°C° 0 mm 1 mps 688 mmHg 86%
    Show more